TimeCST,TemperatureF,Dew PointF,Humidity,Sea Level PressureIn,VisibilityMPH,Wind Direction,Wind SpeedMPH,Gust SpeedMPH,PrecipitationIn,Events,Conditions,WindDirDegrees,DateUTC
12:53 AM,34.0,25.0,70,30.42,10.0,WNW,4.6,-,N/A,,Clear,300,2011-12-07 06:53:00
2:53 AM,28.0,24.1,85,30.42,10.0,Calm,Calm,-,N/A,,Clear,0,2011-12-07 08:53:00
3:53 AM,28.0,25.0,88,30.42,10.0,West,3.5,-,N/A,,Clear,260,2011-12-07 09:53:00
4:53 AM,28.9,25.0,85,30.42,10.0,Calm,Calm,-,N/A,,Clear,0,2011-12-07 10:53:00
5:53 AM,28.9,25.0,85,30.43,10.0,Calm,Calm,-,N/A,,Clear,0,2011-12-07 11:53:00
6:53 AM,26.1,23.0,88,30.45,10.0,Calm,Calm,-,N/A,,Clear,0,2011-12-07 12:53:00
7:53 AM,28.9,26.1,89,30.48,10.0,Calm,Calm,-,N/A,,Clear,0,2011-12-07 13:53:00
8:53 AM,34.0,28.9,82,30.49,10.0,Calm,Calm,-,N/A,,Clear,0,2011-12-07 14:53:00
9:53 AM,39.9,26.1,58,30.50,10.0,Variable,3.5,-,N/A,,Clear,0,2011-12-07 15:53:00
10:53 AM,45.0,26.1,48,30.47,10.0,WNW,4.6,-,N/A,,Clear,290,2011-12-07 16:53:00
11:53 AM,48.9,25.0,39,30.44,10.0,WNW,5.8,-,N/A,,Clear,290,2011-12-07 17:53:00
12:53 PM,51.1,26.1,38,30.38,10.0,West,5.8,-,N/A,,Clear,280,2011-12-07 18:53:00
1:53 PM,53.1,24.1,32,30.34,10.0,Variable,3.5,-,N/A,,Clear,0,2011-12-07 19:53:00
2:53 PM,54.0,24.1,31,30.32,10.0,SW,4.6,-,N/A,,Clear,220,2011-12-07 20:53:00
3:53 PM,55.0,25.0,31,30.30,10.0,Calm,Calm,-,N/A,,Clear,0,2011-12-07 21:53:00
4:53 PM,53.1,26.1,35,30.29,10.0,SSE,4.6,-,N/A,,Clear,160,2011-12-07 22:53:00
5:53 PM,48.9,28.9,46,30.31,10.0,SSE,3.5,-,N/A,,Clear,160,2011-12-07 23:53:00
6:53 PM,46.0,28.9,51,30.32,10.0,SE,4.6,-,N/A,,Clear,140,2011-12-08 00:53:00
7:53 PM,44.1,28.9,55,30.33,10.0,Calm,Calm,-,N/A,,Clear,0,2011-12-08 01:53:00
8:53 PM,39.9,30.9,70,30.34,10.0,Calm,Calm,-,N/A,,Clear,0,2011-12-08 02:53:00
9:53 PM,37.9,30.0,73,30.34,10.0,Calm,Calm,-,N/A,,Clear,0,2011-12-08 03:53:00
10:53 PM,36.0,30.0,79,30.34,10.0,Calm,Calm,-,N/A,,Clear,0,2011-12-08 04:53:00
11:53 PM,35.1,30.0,82,30.33,10.0,Calm,Calm,-,N/A,,Clear,0,2011-12-08 05:53:00